DLH8EJ ENBR-EDDF

Flight info

Callsign DLH8EJ
Flight time N/A
Altitude 39000
Route TUXIL DCT ZOL DCT GREFI DCT SOGPO DCT DIXAT DIXAT1A
Aircraft A320/M-SDE2E3FGIJ1LORWXYZ/HB1

Departure

Time 2026-05-06 19:11
Airport Bergen Airport, Flesland (ENBR)

Arrival

Time N/A
Airport Frankfurt Main Airport (EDDF)
Time Latitude Longitude Altitude Speed Heading
2026-05-06 18:45 60.28831 5.22615 175 ft 0 kts 34°
2026-05-06 19:00 60.28831 5.22616 175 ft 0 kts 34°
2026-05-06 19:00 60.28829 5.22612 175 ft 2 kts 34°
2026-05-06 19:01 60.28815 5.22593 175 ft 2 kts 34°
2026-05-06 19:01 60.28801 5.22574 175 ft 2 kts 34°
2026-05-06 19:01 60.28787 5.22554 175 ft 2 kts 34°
2026-05-06 19:01 60.28773 5.22534 175 ft 2 kts 34°
2026-05-06 19:02 60.28759 5.22514 175 ft 3 kts 34°
2026-05-06 19:02 60.28744 5.22494 174 ft 2 kts 34°
2026-05-06 19:02 60.28742 5.22492 174 ft 0 kts 34°
2026-05-06 19:04 60.28750 5.22480 174 ft 5 kts 323°
2026-05-06 19:04 60.28813 5.22437 175 ft 8 kts 353°
2026-05-06 19:05 60.28863 5.22418 175 ft 7 kts 349°
2026-05-06 19:05 60.28906 5.22404 175 ft 6 kts 351°
2026-05-06 19:05 60.28970 5.22382 175 ft 14 kts 351°
2026-05-06 19:05 60.29081 5.22348 178 ft 15 kts 351°
2026-05-06 19:06 60.29177 5.22316 177 ft 15 kts 350°
2026-05-06 19:06 60.29290 5.22274 170 ft 17 kts 349°
2026-05-06 19:06 60.29376 5.22242 164 ft 7 kts 349°
2026-05-06 19:06 60.29406 5.22165 161 ft 9 kts 276°
2026-05-06 19:07 60.29456 5.22100 158 ft 10 kts 349°
2026-05-06 19:07 60.29531 5.22074 155 ft 12 kts 351°
2026-05-06 19:07 60.29615 5.22046 153 ft 13 kts 350°
2026-05-06 19:07 60.29715 5.22011 149 ft 17 kts 350°
2026-05-06 19:08 60.29842 5.21969 152 ft 18 kts 351°
2026-05-06 19:08 60.29965 5.21925 157 ft 18 kts 350°
2026-05-06 19:08 60.30084 5.21888 161 ft 17 kts 352°
2026-05-06 19:08 60.30195 5.21850 166 ft 15 kts 351°
2026-05-06 19:09 60.30292 5.21821 171 ft 13 kts 351°
2026-05-06 19:09 60.30363 5.21797 174 ft 8 kts 350°
2026-05-06 19:09 60.30437 5.21735 177 ft 14 kts 297°
2026-05-06 19:09 60.30421 5.21534 174 ft 14 kts 249°
2026-05-06 19:10 60.30377 5.21473 173 ft 8 kts 175°
2026-05-06 19:10 60.30279 5.21502 169 ft 37 kts 170°
2026-05-06 19:10 60.29750 5.21680 148 ft 113 kts 169°
2026-05-06 19:10 60.28789 5.21972 171 ft 164 kts 174°
2026-05-06 19:11 60.27624 5.22292 725 ft 172 kts 172°
2026-05-06 19:11 60.26406 5.22676 1419 ft 182 kts 172°
2026-05-06 19:11 60.25116 5.23099 2061 ft 197 kts 172°
2026-05-06 19:11 60.23686 5.23595 2562 ft 220 kts 171°
2026-05-06 19:12 60.22094 5.24156 3094 ft 245 kts 172°
2026-05-06 19:12 60.20352 5.24763 3813 ft 260 kts 172°
2026-05-06 19:12 60.18549 5.25388 4833 ft 265 kts 172°
2026-05-06 19:12 60.16720 5.26013 5863 ft 268 kts 172°
2026-05-06 19:13 60.14864 5.26641 6856 ft 272 kts 173°
2026-05-06 19:13 60.12980 5.27271 7799 ft 277 kts 173°
2026-05-06 19:13 60.11066 5.27908 8748 ft 281 kts 173°
2026-05-06 19:13 60.09122 5.28552 9692 ft 286 kts 174°
2026-05-06 19:14 60.07125 5.29148 10390 ft 299 kts 175°
2026-05-06 19:14 60.04986 5.29716 10760 ft 320 kts 176°
2026-05-06 19:14 60.02741 5.30293 11483 ft 328 kts 177°
2026-05-06 19:14 60.00454 5.30879 12271 ft 335 kts 178°
2026-05-06 19:15 59.98128 5.31480 13113 ft 339 kts 178°
2026-05-06 19:15 59.95771 5.32101 13967 ft 343 kts 179°
2026-05-06 19:15 59.93396 5.32732 14726 ft 346 kts 179°
2026-05-06 19:15 59.90997 5.33368 15478 ft 349 kts 179°
2026-05-06 19:16 59.88580 5.34011 16224 ft 352 kts 180°
2026-05-06 19:16 59.86134 5.34657 16849 ft 357 kts 180°
2026-05-06 19:16 59.83672 5.35310 17182 ft 359 kts 180°
2026-05-06 19:16 59.81190 5.35969 17940 ft 361 kts 180°
2026-05-06 19:17 59.78690 5.36598 18646 ft 363 kts 181°
2026-05-06 19:17 59.76167 5.37094 19242 ft 364 kts 183°
2026-05-06 19:17 59.73638 5.37497 19880 ft 367 kts 184°
2026-05-06 19:17 59.71082 5.37861 20494 ft 369 kts 184°
2026-05-06 19:18 59.68510 5.38221 21099 ft 373 kts 184°
2026-05-06 19:18 59.65909 5.38606 21696 ft 376 kts 184°
2026-05-06 19:18 59.63289 5.39051 22275 ft 381 kts 183°
2026-05-06 19:18 59.60640 5.39651 22842 ft 385 kts 181°
2026-05-06 19:19 59.57967 5.40353 23408 ft 389 kts 181°
2026-05-06 19:19 59.55270 5.41098 23901 ft 393 kts 181°
2026-05-06 19:19 59.52560 5.41850 24391 ft 395 kts 181°
2026-05-06 19:19 59.49836 5.42590 24895 ft 396 kts 181°
2026-05-06 19:20 59.47135 5.43300 25321 ft 397 kts 180°
2026-05-06 19:20 59.44392 5.43994 25809 ft 399 kts 181°
2026-05-06 19:20 59.41634 5.44678 26291 ft 400 kts 181°
2026-05-06 19:20 59.38868 5.45407 26774 ft 403 kts 179°
2026-05-06 19:21 59.36093 5.46306 27248 ft 406 kts 178°
2026-05-06 19:21 59.33310 5.47330 27699 ft 408 kts 177°
2026-05-06 19:21 59.30518 5.48415 28169 ft 410 kts 177°
2026-05-06 19:21 59.27714 5.49510 28631 ft 411 kts 177°
2026-05-06 19:22 59.24902 5.50587 29071 ft 413 kts 177°
2026-05-06 19:22 59.22074 5.51643 29509 ft 414 kts 178°
2026-05-06 19:22 59.19239 5.52678 29873 ft 416 kts 178°
2026-05-06 19:22 59.16382 5.53701 30204 ft 419 kts 178°
2026-05-06 19:23 59.13500 5.54723 30505 ft 422 kts 178°
2026-05-06 19:23 59.10596 5.55754 30772 ft 426 kts 177°
2026-05-06 19:23 59.07671 5.56797 31043 ft 429 kts 177°
2026-05-06 19:23 59.04724 5.57854 31310 ft 432 kts 177°
2026-05-06 19:24 59.01754 5.58922 31577 ft 436 kts 177°
2026-05-06 19:24 58.98764 5.59997 31882 ft 437 kts 176°
2026-05-06 19:24 58.95773 5.61075 32247 ft 438 kts 176°
2026-05-06 19:24 58.92773 5.62148 32603 ft 439 kts 176°
2026-05-06 19:25 58.89802 5.63200 32891 ft 440 kts 176°
2026-05-06 19:25 58.86792 5.64028 33236 ft 435 kts 183°
2026-05-06 19:25 58.83777 5.64229 33599 ft 433 kts 185°
2026-05-06 19:25 58.80762 5.64405 33980 ft 434 kts 185°
2026-05-06 19:26 58.77740 5.64596 34291 ft 435 kts 185°
2026-05-06 19:26 58.74719 5.64795 34589 ft 435 kts 184°
2026-05-06 19:26 58.71690 5.64994 34880 ft 435 kts 184°
2026-05-06 19:26 58.68665 5.65185 35168 ft 436 kts 184°
2026-05-06 19:27 58.65633 5.65374 35453 ft 436 kts 184°
2026-05-06 19:27 58.62601 5.65563 35734 ft 436 kts 184°
2026-05-06 19:27 58.59565 5.65755 36011 ft 436 kts 184°
2026-05-06 19:27 58.56530 5.65944 36285 ft 436 kts 184°
2026-05-06 19:28 58.53496 5.66127 36545 ft 437 kts 184°
2026-05-06 19:28 58.50457 5.66311 36799 ft 437 kts 183°
2026-05-06 19:28 58.47420 5.66493 37054 ft 437 kts 183°
2026-05-06 19:28 58.44380 5.66678 37302 ft 437 kts 183°
2026-05-06 19:29 58.41342 5.66865 37549 ft 437 kts 183°
2026-05-06 19:29 58.38298 5.67051 37790 ft 437 kts 183°
2026-05-06 19:29 58.35300 5.67233 38025 ft 437 kts 183°
2026-05-06 19:29 58.32257 5.67416 38220 ft 438 kts 182°
2026-05-06 19:30 58.29212 5.67601 38449 ft 438 kts 182°
2026-05-06 19:30 58.26166 5.67789 38667 ft 438 kts 182°
2026-05-06 19:30 58.23121 5.67979 38841 ft 438 kts 182°
2026-05-06 19:30 58.20071 5.68169 38989 ft 439 kts 182°
2026-05-06 19:31 58.17019 5.68356 39040 ft 439 kts 182°
2026-05-06 19:31 58.07846 5.68888 39049 ft 439 kts 182°
2026-05-06 19:32 58.01738 5.69246 39056 ft 439 kts 182°
2026-05-06 19:32 57.95635 5.69612 39053 ft 439 kts 182°
2026-05-06 19:33 57.89537 5.69980 39057 ft 439 kts 182°
2026-05-06 19:33 57.83430 5.70342 39059 ft 439 kts 182°
2026-05-06 19:34 57.77324 5.70697 39039 ft 439 kts 182°
2026-05-06 19:34 57.71217 5.71062 39052 ft 439 kts 182°
2026-05-06 19:35 57.65104 5.71422 39058 ft 439 kts 182°
2026-05-06 19:35 57.58996 5.71785 39062 ft 440 kts 182°
2026-05-06 19:36 57.52881 5.72141 39066 ft 440 kts 182°
2026-05-06 19:36 57.46731 5.72489 39055 ft 446 kts 182°
2026-05-06 19:37 57.40471 5.72838 39055 ft 455 kts 182°
2026-05-06 19:37 57.35171 5.73147 39054 ft 462 kts 182°
2026-05-06 19:38 57.27634 5.73585 39054 ft 465 kts 182°
2026-05-06 19:38 57.21204 5.73955 39055 ft 465 kts 182°
2026-05-06 19:39 57.14737 5.74332 39054 ft 465 kts 182°
2026-05-06 19:39 57.09318 5.74634 39059 ft 465 kts 182°
2026-05-06 19:40 57.01786 5.75064 39061 ft 466 kts 182°
2026-05-06 19:40 56.95305 5.75436 39051 ft 466 kts 182°
2026-05-06 19:41 56.89872 5.75733 39066 ft 466 kts 182°
2026-05-06 19:41 56.83384 5.76082 39075 ft 466 kts 182°
2026-05-06 19:42 56.76944 5.76441 39073 ft 466 kts 182°
2026-05-06 19:42 56.70458 5.76809 39055 ft 466 kts 181°
2026-05-06 19:43 56.63977 5.77185 39063 ft 466 kts 182°
2026-05-06 19:43 56.57502 5.77542 39076 ft 466 kts 182°
2026-05-06 19:44 56.51023 5.77900 39079 ft 466 kts 182°
2026-05-06 19:44 56.44551 5.78246 39072 ft 465 kts 182°
2026-05-06 19:45 56.38082 5.78593 39071 ft 464 kts 182°
2026-05-06 19:45 56.31628 5.78949 39077 ft 464 kts 182°
2026-05-06 19:46 56.25170 5.79295 39079 ft 464 kts 182°
2026-05-06 19:46 56.18709 5.79637 39080 ft 464 kts 182°
2026-05-06 19:47 56.12255 5.79997 39070 ft 464 kts 181°
2026-05-06 19:47 56.05809 5.80355 39074 ft 464 kts 181°
2026-05-06 19:48 55.99365 5.80705 39078 ft 463 kts 181°
2026-05-06 19:48 55.92925 5.81045 39078 ft 463 kts 181°
2026-05-06 19:49 55.86482 5.81385 39077 ft 463 kts 181°
2026-05-06 19:49 55.80054 5.81715 39075 ft 462 kts 182°
2026-05-06 19:50 55.73625 5.82048 39073 ft 462 kts 181°
2026-05-06 19:50 55.67200 5.82393 39071 ft 462 kts 181°
2026-05-06 19:51 55.60772 5.82733 39044 ft 462 kts 181°
2026-05-06 19:51 55.54343 5.83062 39053 ft 462 kts 181°
2026-05-06 19:52 55.47921 5.83394 39064 ft 462 kts 181°
2026-05-06 19:52 55.41500 5.83740 39062 ft 462 kts 181°
2026-05-06 19:53 55.35082 5.84084 39051 ft 461 kts 181°
2026-05-06 19:53 55.28669 5.84410 39052 ft 461 kts 181°
2026-05-06 19:54 55.22259 5.84725 39051 ft 460 kts 181°
2026-05-06 19:54 55.15898 5.85055 39052 ft 461 kts 181°
2026-05-06 19:55 55.09486 5.85403 39039 ft 461 kts 181°
2026-05-06 19:55 55.03078 5.85736 39047 ft 460 kts 181°
2026-05-06 19:56 54.96673 5.86165 39046 ft 461 kts 179°
2026-05-06 19:56 54.90264 5.87060 39047 ft 462 kts 178°
2026-05-06 19:57 54.83851 5.88101 39036 ft 462 kts 178°
2026-05-06 19:57 54.77446 5.89049 39049 ft 462 kts 178°
2026-05-06 19:58 54.71041 5.89918 39042 ft 462 kts 179°
2026-05-06 19:58 54.64639 5.90775 39038 ft 461 kts 178°
2026-05-06 19:59 54.58242 5.91645 39034 ft 461 kts 178°